[[{"header":{"parameterUnit":"m.s-1","parameterCategory":1,"la1":30.2991,"la2":30.254,"lo1":-89.0895,"lo2":-89.0444,"dy":0.0017,"dx":0.0017,"nx":28,"ny":28,"refTime":"2025-01-21T03:00:00:Z","depth":0,"parameterNumber":2,"parameterNumberName":"U-component_of_WINDS"},"data":[0,0,0,0,0,0,0,0,0,0,0,0,0,0,0,0,0,0,0,0,0,0,0,0,0,0,0,0,0,0,0,0,0,0,0,0,0,0,0,0,0,0,0,0,0,0,0,0,0,0,0,0,0,0,0,0,0,0,-0.0643,-0.0644,0,-0.0727,-0.0728,-0.0729,-0.0712,-0.0711,-0.0709,-0.0708,-0.0796,-0.0799,-0.0803,0,0,0,0,0,0,0,0,0,0,0,0,0,-0.0466,-0.0469,-0.0643,-0.0644,-0.0645,-0.0727,-0.0728,-0.073,-0.0713,-0.0711,-0.0709,-0.0707,-0.0794,-0.0799,-0.0803,0,0,0,0,0,0,0,0,0,0,0,0,0,-0.0546,-0.0471,-0.0642,-0.0646,-0.0647,-0.0727,-0.0728,-0.073,-0.0713,-0.0711,-0.0708,-0.0706,-0.0793,-0.0798,-0.0804,-0.0886,0,0,-0.0821,-0.0824,0,0,0,0,0,0,0,0,-0.0542,-0.0553,-0.0644,-0.0646,-0.0647,-0.0707,-0.0698,-0.0782,-0.0714,-0.0688,-0.0708,-0.0705,-0.0768,-0.0776,-0.0797,-0.089,-0.0893,-0.0822,-0.0825,-0.0828,-0.0829,0,0,0,0,0,0,0,-0.0536,-0.0549,-0.0676,-0.0646,-0.0648,-0.0644,-0.0652,-0.0714,-0.074,-0.069,-0.0689,-0.0699,-0.0768,-0.0791,-0.0799,-0.0895,-0.0822,-0.0827,-0.083,-0.0832,-0.1059,-0.1062,0,0,0,0,0,0,-0.0529,-0.0544,-0.0673,-0.0679,-0.0588,-0.0649,-0.0658,-0.069,-0.0739,-0.0745,-0.0701,-0.0698,-0.0783,-0.0792,-0.0802,-0.0902,-0.0828,-0.0833,-0.0836,-0.1057,-0.106,-0.1063,0,0,0,0,0,0,-0.0525,-0.0541,-0.067,-0.0611,-0.0627,-0.0654,-0.069,-0.0693,-0.0716,-0.0748,-0.0752,-0.072,-0.0781,-0.0794,-0.0865,-0.0905,-0.0836,-0.0841,-0.1054,-0.1058,-0.1061,-0.1102,0,0,0,0,0,0,-0.052,-0.054,-0.0571,-0.0612,-0.0631,-0.0732,-0.0692,-0.0696,-0.0726,-0.0723,-0.0766,-0.0771,-0.078,-0.0857,-0.0871,-0.0911,-0.0845,-0.105,-0.1056,-0.106,-0.1097,-0.1107,-0.1115,0,0,0,0,0,-0.0514,-0.0579,-0.0573,-0.0588,-0.067,-0.0734,-0.0745,-0.0754,-0.0729,-0.0761,-0.0781,-0.077,-0.0897,-0.0864,-0.088,-0.0923,-0.1048,-0.1054,-0.106,-0.1093,-0.1105,-0.1115,0,0,0,0,0,0,-0.0543,-0.0585,-0.0578,-0.0658,-0.0693,-0.0731,-0.0772,-0.0766,-0.0808,-0.0804,-0.0812,-0.0823,-0.0896,-0.0915,-0.0878,-0.1004,-0.0969,-0.0978,-0.0989,-0.1001,-0.1009,-0.1004,-0.085,0,0,0,0,0,-0.0558,-0.0606,-0.064,-0.0708,-0.0725,-0.0746,-0.0774,-0.0777,-0.0814,-0.0829,-0.0854,-0.089,-0.0938,-0.097,-0.1016,-0.1099,-0.1109,-0.1136,-0.1144,-0.1152,-0.1161,-0.1207,-0.122,-0.1082,-0.1082,-0.1082,0,0,-0.0591,-0.062,-0.065,-0.0714,-0.0742,-0.0792,-0.0758,-0.0813,-0.0851,-0.0837,-0.0907,-0.0926,-0.0967,-0.1045,-0.108,-0.1064,-0.12,-0.1159,-0.1165,-0.117,-0.1215,-0.1228,-0.1239,-0.1086,-0.1086,-0.1085,0,0,-0.0678,-0.0703,-0.0763,-0.0791,-0.0832,-0.0845,-0.0859,-0.0899,-0.0911,-0.0981,-0.0971,-0.1016,-0.1098,-0.1128,-0.1154,-0.1249,-0.1241,-0.1263,-0.1311,-0.1356,-0.1367,-0.1377,-0.1413,-0.1426,-0.1271,-0.1272,-0.1272,0,-0.0714,-0.0789,-0.0795,-0.0851,-0.088,-0.0868,-0.0929,-0.0955,-0.101,-0.103,-0.101,-0.1113,-0.1139,-0.1225,-0.1248,-0.1268,-0.1285,-0.126,-0.1365,-0.1375,-0.1384,-0.1419,-0.1432,-0.1274,-0.1274,-0.1274,-0.1273,0,-0.0833,-0.0885,-0.0928,-0.0981,-0.1014,-0.1072,-0.1086,-0.1119,-0.1119,-0.1133,-0.1204,-0.1235,-0.1287,-0.1307,-0.1307,-0.1392,-0.1381,-0.1363,-0.1328,-0.14,-0.1433,-0.1446,-0.1278,-0.1277,-0.1276,-0.1276,0,0,-0.0943,-0.0997,-0.1013,-0.1037,-0.1081,-0.1121,-0.1178,-0.1229,-0.1258,-0.1294,-0.1343,-0.1412,-0.1395,-0.1425,-0.1428,-0.1467,-0.1543,-0.1444,-0.1445,-0.1463,-0.164,-0.1656,-0.1671,-0.1536,-0.1538,-0.154,-0.1638,0,-0.1036,-0.1137,-0.1143,-0.1235,-0.1284,-0.1272,-0.1322,-0.1354,-0.1369,-0.1412,-0.1428,-0.1478,-0.145,-0.1468,-0.1506,-0.1526,-0.1579,-0.1518,-0.1583,-0.1585,-0.1577,-0.1688,-0.1705,-0.1796,-0.165,-0.1652,-0.1654,0,-0.1159,-0.1199,-0.1296,-0.1333,-0.1354,-0.1398,-0.1445,-0.1486,-0.1522,-0.153,-0.1562,-0.1559,-0.1618,-0.1578,-0.1659,-0.1618,-0.1644,-0.1657,-0.1661,-0.167,-0.1627,-0.1703,-0.1825,-0.1839,-0.1674,-0.1672,-0.1671,0,-0.1233,-0.1311,-0.138,-0.14,-0.1444,-0.1476,-0.1496,-0.1529,-0.1559,-0.1599,-0.1619,-0.1665,-0.1692,-0.1728,-0.1737,-0.1707,-0.1819,-0.178,-0.1828,-0.1828,-0.1856,-0.1855,-0.1986,-0.1867,-0.1867,-0.1866,-0.1866,0,-0.1338,-0.1398,-0.1414,-0.1456,-0.1523,-0.1528,-0.1595,-0.1612,-0.1642,-0.1688,-0.1679,-0.1722,-0.173,-0.1775,-0.1782,-0.1849,-0.186,-0.1869,-0.1871,-0.1872,-0.1872,-0.1892,-0.1887,-0.187,-0.1869,-0.1869,-0.1868,0,-0.1434,-0.1446,-0.1521,-0.1555,-0.1565,-0.1614,-0.1644,-0.1684,-0.1696,-0.1755,-0.1768,-0.1788,-0.184,-0.1852,-0.1914,-0.1919,-0.1999,-0.1993,-0.1988,-0.1988,-0.2037,-0.2034,-0.219,-0.2211,-0.2075,-0.2076,-0.2077,0,-0.1502,-0.1548,-0.1588,-0.1618,-0.1639,-0.1687,-0.1717,-0.1723,-0.1755,-0.1799,-0.1834,-0.1885,-0.1927,-0.201,-0.2031,-0.2078,-0.2075,-0.2126,-0.2082,-0.2082,-0.2079,-0.2077,-0.2083,-0.2136,-0.2137,-0.2138,-0.2139,0,-0.1622,-0.1626,-0.167,-0.1716,-0.1753,-0.1789,-0.1824,-0.1849,-0.1859,-0.1896,-0.1949,-0.1981,-0.2043,-0.2095,-0.2142,-0.2162,-0.2153,-0.2152,-0.2166,-0.217,-0.2166,-0.2171,-0.2014,-0.215,-0.2149,-0.2148,-0.2147,-0.2147,-0.1709,-0.1749,-0.1784,-0.1833,-0.1859,-0.1892,-0.1932,-0.1949,-0.1994,-0.2046,-0.2045,-0.2104,-0.2137,-0.22,-0.2222,-0.2268,-0.2252,-0.2272,-0.2278,-0.2284,-0.2289,-0.2155,-0.2276,-0.2276,-0.2275,-0.2275,-0.2275,0,-0.1831,-0.1852,-0.1897,-0.1946,-0.1985,-0.1971,-0.2008,-0.2042,-0.2094,-0.2126,-0.2166,-0.2227,-0.2276,-0.2299,-0.2347,-0.238,-0.2377,-0.2392,-0.2392,-0.2397,-0.2299,-0.2284,-0.2394,-0.2394,-0.2394,-0.2394,-0.2394,-0.2394,-0.1899,-0.1968,-0.1976,-0.2057,-0.2078,-0.2135,-0.2158,-0.2188,-0.2213,-0.2282,-0.2323,-0.2337,-0.2365,-0.2415,-0.246,-0.2465,-0.2484,-0.2503,-0.2506,-0.2416,-0.2404,-0.2392,-0.2378,-0.2506,-0.2506,-0.2601,-0.2601,-0.2602]},{"header":{"parameterUnit":"m.s-1","parameterCategory":1,"la1":30.2991,"la2":30.254,"lo1":-89.0895,"lo2":-89.0444,"dy":0.0017,"dx":0.0017,"nx":28,"ny":28,"refTime":"2025-01-21T03:00:00:Z","depth":0,"parameterNumber":3,"parameterNumberName":"V-component_of_WINDS"},"data":[0,0,0,0,0,0,0,0,0,0,0,0,0,0,0,0,0,0,0,0,0,0,0,0,0,0,0,0,0,0,0,0,0,0,0,0,0,0,0,0,0,0,0,0,0,0,0,0,0,0,0,0,0,0,0,0,0,0,-7.7833,-7.7836,0,-7.8084,-7.8087,-7.809,-7.8022,-7.8016,-7.8011,-7.8007,-7.8257,-7.8268,-7.8279,0,0,0,0,0,0,0,0,0,0,0,0,0,-7.7285,-7.7296,-7.7833,-7.7836,-7.7839,-7.8084,-7.8087,-7.809,-7.8022,-7.8016,-7.801,-7.8004,-7.8253,-7.8266,-7.828,0,0,0,0,0,0,0,0,0,0,0,0,0,-7.7528,-7.7299,-7.7832,-7.7835,-7.7837,-7.8083,-7.8087,-7.8091,-7.8024,-7.8016,-7.8009,-7.8001,-7.8248,-7.8265,-7.8282,-7.8538,0,0,-7.8334,-7.8341,0,0,0,0,0,0,0,0,-7.7515,-7.7549,-7.7831,-7.7835,-7.7839,-7.8014,-7.7986,-7.8241,-7.8026,-7.7953,-7.8007,-7.7998,-7.8181,-7.8203,-7.8267,-7.8549,-7.856,-7.8335,-7.8346,-7.8353,-7.8358,0,0,0,0,0,0,0,-7.7498,-7.7537,-7.7932,-7.7835,-7.784,-7.782,-7.7847,-7.8034,-7.8106,-7.7959,-7.7954,-7.7985,-7.8182,-7.8251,-7.8272,-7.8564,-7.8335,-7.835,-7.836,-7.8367,-7.9067,-7.9075,0,0,0,0,0,0,-7.7479,-7.7524,-7.7924,-7.7939,-7.7655,-7.7836,-7.7866,-7.7965,-7.8104,-7.8118,-7.7991,-7.7981,-7.8225,-7.8252,-7.8281,-7.8589,-7.8353,-7.8369,-7.8378,-7.9058,-7.9068,-7.9078,0,0,0,0,0,0,-7.7468,-7.7516,-7.7914,-7.7731,-7.778,-7.7854,-7.7966,-7.7974,-7.8043,-7.8129,-7.8141,-7.8049,-7.822,-7.8257,-7.8475,-7.8597,-7.8376,-7.8392,-7.9048,-7.9061,-7.9073,-7.9209,0,0,0,0,0,0,-7.7453,-7.7512,-7.7613,-7.7734,-7.779,-7.8107,-7.7974,-7.7984,-7.8073,-7.8062,-7.8186,-7.8199,-7.8217,-7.845,-7.8491,-7.8616,-7.8405,-7.9038,-7.9054,-7.9069,-7.9194,-7.9224,-7.9251,0,0,0,0,0,-7.7433,-7.764,-7.7618,-7.7667,-7.7917,-7.8114,-7.8146,-7.8165,-7.8084,-7.8184,-7.8238,-7.8195,-7.8576,-7.8472,-7.8519,-7.8651,-7.903,-7.905,-7.9068,-7.9181,-7.9218,-7.925,0,0,0,0,0,0,-7.7529,-7.7655,-7.7633,-7.7885,-7.799,-7.8102,-7.8229,-7.8204,-7.8332,-7.8316,-7.8331,-7.8359,-7.8582,-7.8637,-7.8519,-7.8905,-7.8791,-7.882,-7.8861,-7.8897,-7.8925,-7.8908,-7.8419,0,0,0,0,0,-7.758,-7.7731,-7.7832,-7.8045,-7.8099,-7.8155,-7.8241,-7.8247,-7.8354,-7.8397,-7.8468,-7.8572,-7.8715,-7.8809,-7.8945,-7.92,-7.9226,-7.9314,-7.9342,-7.9365,-7.9391,-7.9528,-7.9569,-7.9139,-7.9139,-7.9139,0,0,-7.7686,-7.7773,-7.7868,-7.8066,-7.8148,-7.8302,-7.8193,-7.836,-7.8474,-7.8422,-7.8633,-7.8688,-7.8804,-7.9042,-7.915,-7.9096,-7.9514,-7.9389,-7.9407,-7.942,-7.9552,-7.9592,-7.9629,-7.9152,-7.915,-7.9148,0,0,-7.7958,-7.804,-7.8226,-7.831,-7.8435,-7.8471,-7.8515,-7.8632,-7.8668,-7.888,-7.8843,-7.8976,-7.9223,-7.9308,-7.9383,-7.9684,-7.9649,-7.9728,-7.9877,-8.0011,-8.0045,-8.0075,-8.0182,-8.0221,-7.9752,-7.9753,-7.9753,0,-7.8073,-7.8307,-7.8324,-7.8496,-7.8583,-7.8544,-7.8731,-7.881,-7.8973,-7.9033,-7.897,-7.9277,-7.9353,-7.9609,-7.9683,-7.9745,-7.9794,-7.9715,-8.0039,-8.007,-8.0098,-8.02,-8.0241,-7.9761,-7.976,-7.9759,-7.9759,0,-7.8442,-7.8604,-7.8739,-7.8899,-7.9001,-7.918,-7.9221,-7.9321,-7.9317,-7.9358,-7.9573,-7.9662,-7.9816,-7.9876,-7.9873,-8.0132,-8.0094,-8.0035,-7.9921,-8.0147,-8.0244,-8.0283,-7.9774,-7.9771,-7.9768,-7.9766,0,0,-7.8784,-7.8951,-7.9,-7.9072,-7.9206,-7.9331,-7.9505,-7.9657,-7.9743,-7.9855,-8.0001,-8.0209,-8.0155,-8.024,-8.0245,-8.0363,-8.0596,-8.0289,-8.0292,-8.0343,-8.0885,-8.093,-8.0975,-8.0572,-8.058,-8.0586,-8.0875,0,-7.9068,-7.938,-7.9399,-7.968,-7.9829,-7.9793,-7.9944,-8.0041,-8.0084,-8.0214,-8.0259,-8.0407,-8.0325,-8.0376,-8.0491,-8.0543,-8.0705,-8.0522,-8.0706,-8.0713,-8.068,-8.1026,-8.1074,-8.1343,-8.0913,-8.092,-8.0924,0,-7.9442,-7.9569,-7.9865,-7.9977,-8.004,-8.0177,-8.0317,-8.0443,-8.0551,-8.0573,-8.0668,-8.0656,-8.0831,-8.071,-8.0952,-8.0827,-8.0903,-8.0939,-8.095,-8.0969,-8.0833,-8.1054,-8.1429,-8.147,-8.0984,-8.0979,-8.0975,0,-7.9662,-7.9906,-8.0115,-8.0177,-8.0313,-8.041,-8.047,-8.0571,-8.0661,-8.0781,-8.0839,-8.0978,-8.1054,-8.1161,-8.1185,-8.1095,-8.1426,-8.1307,-8.1448,-8.1448,-8.1521,-8.1516,-8.1914,-8.1568,-8.1568,-8.1567,-8.1566,0,-7.9979,-8.0162,-8.0215,-8.0344,-8.0546,-8.0565,-8.0764,-8.0817,-8.0907,-8.1043,-8.1018,-8.1145,-8.117,-8.1301,-8.1321,-8.1517,-8.1551,-8.1573,-8.1576,-8.1576,-8.1574,-8.1627,-8.1609,-8.1577,-8.1575,-8.1573,-8.1571,0,-8.026,-8.0303,-8.0529,-8.0639,-8.0671,-8.0815,-8.0908,-8.1029,-8.1068,-8.124,-8.1281,-8.1342,-8.1495,-8.153,-8.1712,-8.1724,-8.1957,-8.1942,-8.1922,-8.1921,-8.2061,-8.2047,-8.2508,-8.2569,-8.2182,-8.2186,-8.2189,0,-8.046,-8.06,-8.0725,-8.0816,-8.0882,-8.1028,-8.1119,-8.1141,-8.1237,-8.1369,-8.1475,-8.1626,-8.1748,-8.1994,-8.2052,-8.2191,-8.2178,-8.233,-8.2199,-8.2194,-8.2181,-8.2173,-8.2187,-8.2356,-8.236,-8.2363,-8.2366,0,-8.081,-8.0824,-8.0959,-8.1101,-8.1212,-8.1324,-8.1431,-8.1505,-8.1541,-8.1649,-8.1808,-8.1903,-8.2088,-8.2238,-8.2377,-8.2435,-8.2407,-8.2406,-8.2446,-8.2449,-8.2432,-8.2443,-8.1992,-8.2396,-8.2393,-8.2391,-8.2389,-8.2388,-8.1057,-8.1179,-8.1287,-8.1437,-8.152,-8.162,-8.174,-8.1794,-8.1927,-8.2082,-8.2085,-8.2257,-8.2358,-8.2542,-8.2608,-8.2741,-8.2694,-8.2752,-8.2766,-8.2781,-8.2794,-8.241,-8.2766,-8.2765,-8.2764,-8.2764,-8.2763,0,-8.1406,-8.1473,-8.1611,-8.1762,-8.188,-8.1844,-8.1959,-8.2059,-8.2212,-8.231,-8.2431,-8.2611,-8.2756,-8.2825,-8.2967,-8.306,-8.305,-8.3096,-8.309,-8.3104,-8.2828,-8.2779,-8.3102,-8.3102,-8.3102,-8.3102,-8.3101,-8.3101,-8.1601,-8.1807,-8.1833,-8.2078,-8.2143,-8.2314,-8.2382,-8.2474,-8.2552,-8.2756,-8.2877,-8.2921,-8.3007,-8.3154,-8.3284,-8.33,-8.3354,-8.3407,-8.3417,-8.3158,-8.3123,-8.3091,-8.3045,-8.3418,-8.3419,-8.3682,-8.3684,-8.3686]}]]